[[{"header":{"parameterUnit":"m.s-1","parameterCategory":2,"la1":30.2991,"la2":30.254,"lo1":-89.0895,"lo2":-89.0444,"dy":0.0017,"dx":0.0017,"nx":28,"ny":28,"refTime":"2024-07-17T03:00:00:Z","depth":"0","parameterNumber":2,"parameterNumberName":"U-component_of_CURRENTS"},"data":[0,0,0,0,0,0,0,0,0,0,0,0,0,0,0,0,0,0,0,0,0,0,0,0,0,0,0,0,0,0,0,0,0,0,0,0,0,0,0,0,0,0,0,0,0,0,0,0,0,0,0,0,0,0,0,0,0,0,-0.2621,-0.2621,0,-0.2649,-0.2649,-0.2649,-0.2568,-0.2566,-0.2564,-0.2562,-0.2478,-0.2477,-0.2477,0,0,0,0,0,0,0,0,0,0,0,0,0,-0.2488,-0.2491,-0.262,-0.2621,-0.2622,-0.2649,-0.2649,-0.2649,-0.2569,-0.2566,-0.2564,-0.2561,-0.2478,-0.2477,-0.2477,0,0,0,0,0,0,0,0,0,0,0,0,0,-0.253,-0.2492,-0.262,-0.2589,-0.2586,-0.2649,-0.2649,-0.2649,-0.2569,-0.2566,-0.2563,-0.256,-0.2478,-0.2477,-0.2477,-0.2536,0,0,-0.2475,-0.2475,0,0,0,0,0,0,0,0,-0.2528,-0.2534,-0.2593,-0.2591,-0.2589,-0.2606,-0.2572,-0.2607,-0.257,-0.2571,-0.2562,-0.2558,-0.2516,-0.2512,-0.2519,-0.2532,-0.2528,-0.2475,-0.2475,-0.2475,-0.2475,0,0,0,0,0,0,0,-0.2525,-0.2533,-0.2627,-0.2594,-0.2591,-0.2571,-0.2573,-0.2578,-0.2554,-0.257,-0.2566,-0.2577,-0.2512,-0.252,-0.2516,-0.2527,-0.2475,-0.2475,-0.2475,-0.2475,-0.2485,-0.2486,0,0,0,0,0,0,-0.2535,-0.2531,-0.2626,-0.2628,-0.2555,-0.2576,-0.2578,-0.26,-0.2557,-0.255,-0.258,-0.2574,-0.2522,-0.2517,-0.2513,-0.2519,-0.2475,-0.2475,-0.2474,-0.2485,-0.2486,-0.2486,0,0,0,0,0,0,-0.2533,-0.2544,-0.2625,-0.2582,-0.2592,-0.2582,-0.2607,-0.2602,-0.26,-0.2566,-0.2555,-0.2582,-0.2519,-0.2513,-0.2498,-0.2516,-0.2474,-0.2474,-0.2484,-0.2485,-0.2486,-0.257,0,0,0,0,0,0,-0.2529,-0.2543,-0.2558,-0.2584,-0.2595,-0.2661,-0.261,-0.2605,-0.2615,-0.2606,-0.2565,-0.2554,-0.2517,-0.2499,-0.2497,-0.2515,-0.2473,-0.2484,-0.2485,-0.2486,-0.2566,-0.2573,-0.2579,0,0,0,0,0,-0.2524,-0.2554,-0.2559,-0.257,-0.2618,-0.2663,-0.2667,-0.2645,-0.2618,-0.2629,-0.2585,-0.2555,-0.2504,-0.25,-0.2497,-0.2516,-0.2483,-0.2484,-0.2486,-0.2563,-0.2572,-0.2579,0,0,0,0,0,0,-0.2488,-0.2551,-0.2555,-0.2598,-0.2631,-0.2651,-0.2661,-0.2658,-0.2639,-0.2617,-0.2573,-0.2561,-0.2555,-0.2527,-0.2523,-0.2519,-0.2486,-0.2487,-0.2545,-0.2553,-0.256,-0.2548,-0.2473,0,0,0,0,0,-0.2498,-0.2536,-0.259,-0.2617,-0.2642,-0.2657,-0.2671,-0.2665,-0.2659,-0.2647,-0.262,-0.2584,-0.2567,-0.255,-0.2533,-0.2543,-0.2478,-0.2548,-0.2555,-0.256,-0.2548,-0.2492,-0.2492,-0.2491,-0.2491,-0.2491,0,0,-0.2484,-0.2527,-0.2543,-0.2612,-0.2632,-0.2667,-0.2655,-0.2684,-0.2695,-0.2644,-0.2636,-0.2616,-0.2576,-0.2573,-0.2568,-0.2547,-0.2522,-0.2562,-0.2568,-0.2551,-0.2493,-0.2493,-0.2493,-0.2491,-0.2491,-0.2491,0,0,-0.248,-0.2527,-0.2558,-0.2599,-0.2651,-0.2672,-0.2686,-0.2719,-0.2716,-0.2726,-0.2684,-0.2668,-0.2649,-0.262,-0.2603,-0.2639,-0.2565,-0.264,-0.2659,-0.2606,-0.2605,-0.2604,-0.2499,-0.2488,-0.2636,-0.2636,-0.2636,0,-0.2454,-0.2508,-0.257,-0.2612,-0.2639,-0.2676,-0.2705,-0.2728,-0.2741,-0.2743,-0.2722,-0.2691,-0.2666,-0.2653,-0.2658,-0.2655,-0.2592,-0.2637,-0.2614,-0.2612,-0.2609,-0.2502,-0.2488,-0.264,-0.264,-0.2639,-0.2639,0,-0.2475,-0.2518,-0.2541,-0.2608,-0.2652,-0.2683,-0.2738,-0.2766,-0.277,-0.2778,-0.2778,-0.2747,-0.272,-0.2722,-0.2699,-0.2682,-0.2632,-0.2637,-0.2596,-0.2614,-0.2499,-0.2484,-0.2646,-0.2645,-0.2643,-0.2642,0,0,-0.2389,-0.2528,-0.2528,-0.256,-0.2651,-0.2681,-0.2734,-0.2783,-0.279,-0.2808,-0.2795,-0.2795,-0.2783,-0.2762,-0.2744,-0.2699,-0.2628,-0.2663,-0.2658,-0.2558,-0.2464,-0.2337,-0.2307,-0.2635,-0.2633,-0.2632,-0.2383,0,-0.2367,-0.244,-0.2524,-0.2569,-0.2604,-0.2685,-0.273,-0.278,-0.2801,-0.28,-0.2797,-0.2778,-0.28,-0.2777,-0.275,-0.265,-0.2594,-0.2692,-0.2459,-0.2451,-0.2337,-0.2288,-0.2196,-0.196,-0.2367,-0.2364,-0.2362,0,-0.2328,-0.2392,-0.2441,-0.2552,-0.2577,-0.261,-0.2678,-0.2726,-0.2768,-0.2787,-0.2793,-0.2783,-0.2738,-0.2746,-0.2603,-0.2663,-0.2574,-0.2498,-0.2487,-0.2326,-0.2295,-0.2011,-0.1915,-0.1944,-0.2337,-0.2339,-0.2341,0,-0.2196,-0.2317,-0.2351,-0.2386,-0.2524,-0.2554,-0.2619,-0.2693,-0.2714,-0.2755,-0.2722,-0.2732,-0.2639,-0.2599,-0.2467,-0.253,-0.2261,-0.2326,-0.2124,-0.2112,-0.1963,-0.194,-0.1866,-0.2219,-0.222,-0.2221,-0.2221,0,-0.2116,-0.2137,-0.2288,-0.2299,-0.2328,-0.2466,-0.2482,-0.2561,-0.2621,-0.2597,-0.2682,-0.2594,-0.2591,-0.2454,-0.2415,-0.2178,-0.2217,-0.2089,-0.2037,-0.1986,-0.1969,-0.1931,-0.1984,-0.2211,-0.2213,-0.2215,-0.2217,0,-0.1943,-0.2053,-0.2079,-0.2219,-0.2255,-0.226,-0.2377,-0.2385,-0.2477,-0.243,-0.2431,-0.2413,-0.2225,-0.2185,-0.2024,-0.2016,-0.1834,-0.1791,-0.1703,-0.1645,-0.1531,-0.1591,-0.1417,-0.1379,-0.1541,-0.1537,-0.1533,0,-0.1867,-0.1864,-0.1962,-0.196,-0.2011,-0.2063,-0.2093,-0.2264,-0.2283,-0.2282,-0.2221,-0.2055,-0.1879,-0.1603,-0.1559,-0.1429,-0.1536,-0.132,-0.145,-0.147,-0.1499,-0.1585,-0.1575,-0.1269,-0.1263,-0.1259,-0.1255,0,-0.1696,-0.1717,-0.1745,-0.1732,-0.175,-0.1794,-0.1864,-0.187,-0.2033,-0.1991,-0.1861,-0.1712,-0.1436,-0.1201,-0.1062,-0.1051,-0.132,-0.1216,-0.127,-0.1288,-0.134,-0.1295,-0.1469,-0.1213,-0.1217,-0.122,-0.1222,-0.1224,-0.1537,-0.1496,-0.1513,-0.1492,-0.1508,-0.1513,-0.1489,-0.1568,-0.1558,-0.1492,-0.1476,-0.1187,-0.0981,-0.0728,-0.0756,-0.0792,-0.0898,-0.0863,-0.0926,-0.1006,-0.1,-0.105,-0.0732,-0.0733,-0.0734,-0.0735,-0.0736,0,-0.1352,-0.1325,-0.1282,-0.1263,-0.1205,-0.129,-0.1322,-0.1279,-0.1194,-0.1117,-0.0979,-0.0623,-0.0444,-0.0414,-0.046,-0.0541,-0.0644,-0.0614,-0.0762,-0.0762,-0.0805,-0.083,-0.0478,-0.0478,-0.0478,-0.0478,-0.0478,-0.0478,-0.1251,-0.1152,-0.1141,-0.0986,-0.0963,-0.087,-0.0853,-0.0788,-0.0723,-0.0468,-0.0255,-0.0107,-0.0061,-0.0309,-0.0493,-0.054,-0.0628,-0.0581,-0.0657,-0.0765,-0.0797,-0.0828,-0.0865,-0.0527,-0.0527,-0.0594,-0.0594,-0.0595]},{"header":{"parameterUnit":"m.s-1","parameterCategory":2,"la1":30.2991,"la2":30.254,"lo1":-89.0895,"lo2":-89.0444,"dy":0.0017,"dx":0.0017,"nx":28,"ny":28,"refTime":"2024-07-17T03:00:00:Z","depth":"0","parameterNumber":3,"parameterNumberName":"V-component_of_CURRENTS"},"data":[0,0,0,0,0,0,0,0,0,0,0,0,0,0,0,0,0,0,0,0,0,0,0,0,0,0,0,0,0,0,0,0,0,0,0,0,0,0,0,0,0,0,0,0,0,0,0,0,0,0,0,0,0,0,0,0,0,0,-0.0918,-0.0917,0,-0.0851,-0.085,-0.0849,-0.0785,-0.0785,-0.0784,-0.0783,-0.0685,-0.0683,-0.0681,0,0,0,0,0,0,0,0,0,0,0,0,0,-0.0885,-0.0887,-0.0918,-0.0917,-0.0916,-0.0851,-0.085,-0.0849,-0.0786,-0.0785,-0.0784,-0.0783,-0.0686,-0.0683,-0.0681,0,0,0,0,0,0,0,0,0,0,0,0,0,-0.0867,-0.0887,-0.0918,-0.0877,-0.0873,-0.0851,-0.085,-0.0849,-0.0786,-0.0785,-0.0784,-0.0782,-0.0686,-0.0684,-0.0681,-0.0685,0,0,-0.0672,-0.0671,0,0,0,0,0,0,0,0,-0.0868,-0.0868,-0.0884,-0.088,-0.0875,-0.0826,-0.0802,-0.0793,-0.0786,-0.0818,-0.0783,-0.0782,-0.073,-0.0724,-0.0713,-0.0681,-0.0677,-0.0672,-0.067,-0.0669,-0.0668,0,0,0,0,0,0,0,-0.0869,-0.087,-0.0891,-0.0883,-0.0878,-0.0826,-0.0823,-0.08,-0.078,-0.0815,-0.0811,-0.0805,-0.0728,-0.0716,-0.0711,-0.0675,-0.0672,-0.0669,-0.0667,-0.0666,-0.0629,-0.063,0,0,0,0,0,0,-0.0886,-0.0872,-0.0893,-0.0889,-0.0869,-0.0828,-0.0825,-0.0842,-0.0781,-0.0771,-0.0806,-0.0802,-0.0722,-0.0714,-0.0707,-0.0697,-0.0669,-0.0666,-0.0664,-0.0628,-0.0629,-0.063,0,0,0,0,0,0,-0.0886,-0.089,-0.0895,-0.0877,-0.0874,-0.0831,-0.085,-0.0842,-0.0826,-0.0774,-0.0763,-0.0799,-0.0721,-0.0711,-0.0688,-0.0693,-0.0665,-0.0662,-0.0627,-0.0628,-0.0629,-0.0684,0,0,0,0,0,0,-0.0886,-0.0891,-0.0906,-0.088,-0.0876,-0.0888,-0.0851,-0.0841,-0.0825,-0.0819,-0.0765,-0.0755,-0.0719,-0.0692,-0.0685,-0.0688,-0.066,-0.0626,-0.0628,-0.0629,-0.0681,-0.0687,-0.0692,0,0,0,0,0,-0.0885,-0.0921,-0.0908,-0.091,-0.0901,-0.0889,-0.0882,-0.0845,-0.0826,-0.0826,-0.0789,-0.0756,-0.0695,-0.0691,-0.0682,-0.0684,-0.0626,-0.0627,-0.0629,-0.0679,-0.0686,-0.0692,0,0,0,0,0,0,-0.092,-0.0917,-0.0902,-0.0937,-0.0913,-0.0878,-0.0881,-0.0852,-0.0823,-0.0818,-0.0765,-0.0753,-0.0736,-0.0708,-0.0704,-0.0679,-0.0656,-0.0656,-0.0697,-0.0703,-0.0708,-0.0723,-0.0658,0,0,0,0,0,-0.0935,-0.0962,-0.0937,-0.0964,-0.0958,-0.0919,-0.0908,-0.0882,-0.0853,-0.0839,-0.0801,-0.0765,-0.0738,-0.0718,-0.0693,-0.068,-0.0592,-0.0676,-0.0682,-0.0686,-0.0694,-0.053,-0.052,-0.0635,-0.0635,-0.0635,0,0,-0.0955,-0.0959,-0.0972,-0.0972,-0.0955,-0.0963,-0.091,-0.0904,-0.0906,-0.0835,-0.0831,-0.0785,-0.074,-0.0724,-0.0714,-0.0698,-0.0612,-0.0688,-0.0692,-0.0698,-0.053,-0.0519,-0.0508,-0.0636,-0.0636,-0.0636,0,0,-0.1011,-0.1014,-0.1048,-0.1038,-0.1019,-0.0997,-0.0998,-0.0963,-0.0942,-0.0929,-0.0878,-0.0824,-0.0801,-0.0748,-0.0725,-0.0743,-0.0648,-0.0751,-0.0782,-0.0623,-0.0611,-0.0599,-0.0485,-0.0463,-0.0748,-0.0748,-0.0748,0,-0.1029,-0.1079,-0.1052,-0.1077,-0.1085,-0.102,-0.1052,-0.1023,-0.0981,-0.0958,-0.0939,-0.0844,-0.0806,-0.075,-0.0771,-0.075,-0.0663,-0.076,-0.0625,-0.0611,-0.0598,-0.0484,-0.0458,-0.0751,-0.0751,-0.075,-0.075,0,-0.1103,-0.1138,-0.116,-0.1178,-0.1177,-0.1195,-0.1156,-0.1141,-0.1106,-0.1051,-0.0986,-0.0907,-0.0837,-0.0824,-0.0814,-0.072,-0.0691,-0.0648,-0.0602,-0.0589,-0.0471,-0.0443,-0.0755,-0.0754,-0.0753,-0.0752,0,0,-0.1153,-0.1205,-0.1211,-0.1242,-0.1237,-0.1246,-0.1253,-0.1225,-0.1192,-0.1122,-0.1047,-0.1004,-0.0914,-0.0883,-0.0821,-0.0707,-0.0554,-0.0663,-0.0653,-0.054,-0.0227,-0.0196,-0.0162,-0.0478,-0.0474,-0.047,-0.0184,0,-0.1217,-0.1301,-0.1309,-0.1378,-0.1414,-0.1379,-0.1387,-0.1342,-0.1266,-0.1163,-0.1036,-0.0937,-0.0946,-0.0878,-0.0773,-0.0588,-0.0484,-0.0638,-0.0267,-0.0257,-0.0219,-0.0129,-0.0078,0.0182,-0.0157,-0.0152,-0.0149,0,-0.1278,-0.1332,-0.1424,-0.1481,-0.1493,-0.1519,-0.1499,-0.1487,-0.1331,-0.125,-0.111,-0.0974,-0.0804,-0.0786,-0.0482,-0.0578,-0.0436,-0.03,-0.0283,-0.0216,-0.0173,0.0116,0.0246,0.033,-0.0105,-0.0109,-0.0112,0,-0.1319,-0.141,-0.1495,-0.1516,-0.1559,-0.1592,-0.1602,-0.1509,-0.1462,-0.1256,-0.1132,-0.0932,-0.0746,-0.0559,-0.032,-0.0375,0.0048,0.0034,0.0188,0.0191,0.0326,0.0332,0.0593,0.0248,0.0248,0.0247,0.0246,0,-0.1381,-0.1438,-0.1524,-0.1564,-0.1639,-0.165,-0.1659,-0.1611,-0.1474,-0.1349,-0.1161,-0.0964,-0.0672,-0.0401,-0.0256,0.0067,0.0114,0.0206,0.0288,0.0302,0.0303,0.0452,0.0457,0.0257,0.0255,0.0253,0.0251,0,-0.1384,-0.1452,-0.154,-0.1628,-0.1658,-0.17,-0.1712,-0.1675,-0.1545,-0.135,-0.1265,-0.0913,-0.0532,-0.0268,0.0125,0.0204,0.0566,0.0557,0.0524,0.0594,0.0763,0.0761,0.1099,0.1217,0.0784,0.0786,0.0789,0,-0.1383,-0.1437,-0.1569,-0.1615,-0.1659,-0.172,-0.1738,-0.1702,-0.1631,-0.1307,-0.1181,-0.0754,-0.0407,0.0158,0.042,0.0737,0.0775,0.0899,0.0789,0.0808,0.0869,0.0844,0.0916,0.0951,0.0954,0.0957,0.096,0,-0.1356,-0.1413,-0.1482,-0.1585,-0.165,-0.1714,-0.173,-0.1685,-0.1564,-0.1368,-0.0999,-0.0686,-0.0096,0.0383,0.0771,0.0903,0.0978,0.0963,0.1047,0.1071,0.1009,0.115,0.068,0.0985,0.0982,0.098,0.0979,0.0978,-0.1297,-0.1343,-0.1435,-0.1527,-0.1602,-0.1642,-0.164,-0.1588,-0.145,-0.1102,-0.0878,-0.0363,0.0273,0.0888,0.1001,0.1277,0.1237,0.1327,0.1342,0.1327,0.1389,0.0928,0.1271,0.127,0.1269,0.1269,0.1268,0,-0.1198,-0.1269,-0.1356,-0.1464,-0.1505,-0.1579,-0.1571,-0.1495,-0.1285,-0.0974,-0.0626,0.0145,0.071,0.1148,0.1587,0.1658,0.1641,0.169,0.168,0.1754,0.1436,0.1384,0.169,0.169,0.169,0.169,0.169,0.1689,-0.1142,-0.1195,-0.1267,-0.1324,-0.1389,-0.1394,-0.1367,-0.1226,-0.1022,-0.0488,-0.0042,0.0326,0.1031,0.1586,0.1916,0.1929,0.2048,0.2014,0.2098,0.1838,0.1804,0.1771,0.1726,0.2099,0.21,0.243,0.2433,0.2435]}],[{"header":{"parameterUnit":"m.s-1","parameterCategory":2,"la1":30.2991,"la2":30.254,"lo1":-89.0895,"lo2":-89.0444,"dy":0.0017,"dx":0.0017,"nx":28,"ny":28,"refTime":"2024-07-17T03:00:00:Z","depth":"2","parameterNumber":2,"parameterNumberName":"U-component_of_CURRENTS"},"data":[0,0,0,0,0,0,0,0,0,0,0,0,0,0,0,0,0,0,0,0,0,0,0,0,0,0,0,0,0,0,0,0,0,0,0,0,0,0,0,0,0,0,0,0,0,0,0,0,0,0,0,0,0,0,0,0,0,0,-0.2251,-0.2251,0,-0.2274,-0.2274,-0.2275,-0.2448,-0.2453,-0.2457,-0.2461,-0.2603,-0.2603,-0.2603,0,0,0,0,0,0,0,0,0,0,0,0,0,-0.2126,-0.2129,-0.2251,-0.2251,-0.2251,-0.2274,-0.2274,-0.2275,-0.2448,-0.2453,-0.2458,-0.2463,-0.2603,-0.2603,-0.2603,0,0,0,0,0,0,0,0,0,0,0,0,0,-0.2169,-0.213,-0.2251,-0.234,-0.2348,-0.2274,-0.2274,-0.2275,-0.2447,-0.2453,-0.2459,-0.2465,-0.2603,-0.2603,-0.2603,-0.2475,0,0,-0.2602,-0.2602,0,0,0,0,0,0,0,0,-0.2166,-0.2174,-0.2327,-0.2334,-0.2343,-0.2364,-0.2282,-0.2348,-0.2445,-0.241,-0.2461,-0.2468,-0.2529,-0.2535,-0.2525,-0.2482,-0.2488,-0.2602,-0.2602,-0.2602,-0.2602,0,0,0,0,0,0,0,-0.2164,-0.2172,-0.2261,-0.2326,-0.2336,-0.2299,-0.2315,-0.2294,-0.2436,-0.2413,-0.2426,-0.2425,-0.2536,-0.2525,-0.253,-0.249,-0.2602,-0.2602,-0.2602,-0.2602,-0.2582,-0.2581,0,0,0,0,0,0,-0.2165,-0.217,-0.226,-0.2261,-0.2267,-0.2298,-0.2314,-0.2351,-0.2435,-0.2452,-0.242,-0.2433,-0.2522,-0.253,-0.2536,-0.2575,-0.2602,-0.2602,-0.2602,-0.2582,-0.2582,-0.2581,0,0,0,0,0,0,-0.2162,-0.2174,-0.2259,-0.2213,-0.2222,-0.2295,-0.2333,-0.2349,-0.2375,-0.2438,-0.246,-0.2436,-0.2527,-0.2536,-0.2596,-0.2576,-0.2602,-0.2602,-0.2583,-0.2582,-0.2581,-0.2535,0,0,0,0,0,0,-0.2159,-0.2174,-0.2186,-0.2215,-0.2225,-0.2283,-0.2328,-0.2344,-0.2363,-0.2382,-0.2457,-0.2475,-0.2533,-0.2596,-0.2596,-0.2576,-0.2602,-0.2583,-0.2582,-0.2582,-0.2537,-0.2533,-0.2529,0,0,0,0,0,-0.2155,-0.2152,-0.2187,-0.2197,-0.2247,-0.2284,-0.2288,-0.2356,-0.2357,-0.2395,-0.2451,-0.2475,-0.2591,-0.2596,-0.2595,-0.2575,-0.2583,-0.2583,-0.2582,-0.2539,-0.2534,-0.2529,0,0,0,0,0,0,-0.2134,-0.217,-0.221,-0.223,-0.2286,-0.2316,-0.2308,-0.234,-0.2396,-0.2417,-0.2467,-0.249,-0.2529,-0.255,-0.2554,-0.2569,-0.2588,-0.2587,-0.2555,-0.2551,-0.2547,-0.2545,-0.2601,0,0,0,0,0,-0.2121,-0.212,-0.2185,-0.2205,-0.2213,-0.2249,-0.2256,-0.2326,-0.2372,-0.2403,-0.2448,-0.2487,-0.2503,-0.2537,-0.2565,-0.2557,-0.2554,-0.2545,-0.2541,-0.2538,-0.2537,-0.252,-0.2514,-0.2578,-0.2578,-0.2578,0,0,-0.2121,-0.2132,-0.2141,-0.2195,-0.2211,-0.2239,-0.2273,-0.231,-0.2347,-0.24,-0.2442,-0.2468,-0.2498,-0.2526,-0.2542,-0.2557,-0.2514,-0.2536,-0.2533,-0.2534,-0.2518,-0.2512,-0.2506,-0.2577,-0.2577,-0.2578,0,0,-0.2099,-0.2123,-0.2117,-0.2152,-0.2198,-0.2226,-0.2239,-0.2295,-0.2338,-0.2376,-0.2417,-0.2441,-0.2468,-0.25,-0.2506,-0.2479,-0.2487,-0.2486,-0.2471,-0.2454,-0.2448,-0.2443,-0.2413,-0.2405,-0.2492,-0.2492,-0.2492,0,-0.2097,-0.2113,-0.2127,-0.2136,-0.2154,-0.2217,-0.2245,-0.2273,-0.2359,-0.2379,-0.2409,-0.2425,-0.2446,-0.2453,-0.2463,-0.2466,-0.2465,-0.2485,-0.2447,-0.2442,-0.2438,-0.2408,-0.2401,-0.249,-0.249,-0.249,-0.249,0,-0.2073,-0.2104,-0.209,-0.2123,-0.2153,-0.2185,-0.2243,-0.2288,-0.2312,-0.2349,-0.2377,-0.2401,-0.2426,-0.2414,-0.2428,-0.2407,-0.2417,-0.2435,-0.2456,-0.2429,-0.2399,-0.2392,-0.2486,-0.2487,-0.2488,-0.2488,0,0,-0.2033,-0.2067,-0.2075,-0.2097,-0.2155,-0.2183,-0.2222,-0.2281,-0.2303,-0.2355,-0.2367,-0.2364,-0.2383,-0.239,-0.2402,-0.2382,-0.2328,-0.2401,-0.2401,-0.2365,-0.2289,-0.2178,-0.216,-0.2352,-0.2351,-0.235,-0.2274,0,-0.2019,-0.2036,-0.2062,-0.2103,-0.2113,-0.2182,-0.2212,-0.2282,-0.232,-0.2355,-0.236,-0.2374,-0.2371,-0.238,-0.2359,-0.2349,-0.2313,-0.2347,-0.2327,-0.2326,-0.2226,-0.2149,-0.1998,-0.1908,-0.2267,-0.2266,-0.2265,0,-0.1989,-0.2001,-0.203,-0.2095,-0.2106,-0.2139,-0.2201,-0.2248,-0.2311,-0.2345,-0.2367,-0.2386,-0.2368,-0.2362,-0.2313,-0.2345,-0.2307,-0.2283,-0.2281,-0.219,-0.2201,-0.1998,-0.1882,-0.2254,-0.2255,-0.2256,-0.2256,0,-0.1926,-0.1986,-0.2001,-0.2021,-0.2094,-0.2119,-0.2163,-0.2237,-0.227,-0.2332,-0.2364,-0.2367,-0.2373,-0.2327,-0.2275,-0.2304,-0.2206,-0.2242,-0.2099,-0.2091,-0.1962,-0.1943,-0.2178,-0.2178,-0.2179,-0.2179,-0.2179,0,-0.1879,-0.19,-0.1973,-0.1972,-0.2005,-0.2075,-0.2106,-0.2173,-0.224,-0.2267,-0.2344,-0.2365,-0.2367,-0.2326,-0.2268,-0.2142,-0.2195,-0.2066,-0.2052,-0.1938,-0.192,-0.2234,-0.2242,-0.2176,-0.2177,-0.2177,-0.2178,0,-0.1809,-0.1855,-0.1877,-0.1946,-0.1967,-0.1989,-0.2063,-0.2085,-0.218,-0.2218,-0.2237,-0.2348,-0.2291,-0.2245,-0.2171,-0.2123,-0.2016,-0.1956,-0.181,-0.1779,-0.1921,-0.1927,-0.1798,-0.1793,-0.1789,-0.1785,-0.1783,0,-0.1779,-0.1774,-0.1837,-0.1845,-0.1869,-0.1908,-0.193,-0.2031,-0.2044,-0.2193,-0.219,-0.2213,-0.2183,-0.2046,-0.1921,-0.1759,-0.1862,-0.1576,-0.1585,-0.1875,-0.1877,-0.189,-0.1901,-0.1398,-0.1392,-0.1387,-0.1383,0,-0.1704,-0.1725,-0.1735,-0.1752,-0.1769,-0.1788,-0.1817,-0.1826,-0.1939,-0.198,-0.2019,-0.2023,-0.1937,-0.1738,-0.158,-0.148,-0.1589,-0.1474,-0.1799,-0.1516,-0.1491,-0.1495,-0.1521,-0.1341,-0.1345,-0.1348,-0.1351,-0.1352,-0.1657,-0.1642,-0.1647,-0.1651,-0.1678,-0.1659,-0.1642,-0.1641,-0.1646,-0.1652,-0.1767,-0.1691,-0.1705,-0.1347,-0.124,-0.1135,-0.1256,-0.1221,-0.1239,-0.1261,-0.1226,-0.1195,-0.0983,-0.0985,-0.0987,-0.0988,-0.099,0,-0.1595,-0.1558,-0.1548,-0.1563,-0.1542,-0.1593,-0.1561,-0.1492,-0.1428,-0.1375,-0.1347,-0.1196,-0.1073,-0.1043,-0.0818,-0.0796,-0.0821,-0.0764,-0.082,-0.0859,-0.0896,-0.0847,-0.0501,-0.05,-0.0499,-0.0498,0,0,-0.1555,-0.1487,-0.1455,-0.1398,-0.1432,-0.1405,-0.1365,-0.1229,-0.1121,-0.0936,-0.0837,-0.0905,-0.0967,-0.0721,-0.0689,-0.0556,-0.0695,-0.0505,-0.089,-0.0991,-0.1026,-0.1143,-0.1109,0,0,0,0,0]},{"header":{"parameterUnit":"m.s-1","parameterCategory":2,"la1":30.2991,"la2":30.254,"lo1":-89.0895,"lo2":-89.0444,"dy":0.0017,"dx":0.0017,"nx":28,"ny":28,"refTime":"2024-07-17T03:00:00:Z","depth":"2","parameterNumber":3,"parameterNumberName":"V-component_of_CURRENTS"},"data":[0,0,0,0,0,0,0,0,0,0,0,0,0,0,0,0,0,0,0,0,0,0,0,0,0,0,0,0,0,0,0,0,0,0,0,0,0,0,0,0,0,0,0,0,0,0,0,0,0,0,0,0,0,0,0,0,0,0,-0.0201,-0.02,0,-0.0132,-0.0131,-0.0131,-0.0027,-0.0025,-0.0023,-0.0021,0.0147,0.0149,0.0152,0,0,0,0,0,0,0,0,0,0,0,0,0,-0.0304,-0.0303,-0.0201,-0.02,-0.0198,-0.0132,-0.0131,-0.0131,-0.0028,-0.0025,-0.0022,-0.002,0.0146,0.0149,0.0152,0,0,0,0,0,0,0,0,0,0,0,0,0,-0.0253,-0.0302,-0.0201,-0.0137,-0.013,-0.0132,-0.0131,-0.0131,-0.0028,-0.0025,-0.0022,-0.0019,0.0145,0.0149,0.0152,0.0111,0,0,0.0164,0.0165,0,0,0,0,0,0,0,0,-0.0256,-0.0249,-0.0147,-0.0141,-0.0133,-0.0082,-0.0106,-0.0044,-0.0029,-0.007,-0.0021,-0.0017,0.0079,0.0088,0.0088,0.0119,0.0126,0.0164,0.0166,0.0168,0.0169,0,0,0,0,0,0,0,-0.0259,-0.0252,-0.0177,-0.0146,-0.0138,-0.0132,-0.0121,-0.0095,-0.0015,-0.0066,-0.0058,-0.0046,0.0084,0.0084,0.0093,0.0129,0.0164,0.0167,0.0169,0.0171,0.0284,0.0284,0,0,0,0,0,0,-0.0261,-0.0255,-0.0179,-0.0174,-0.0184,-0.0132,-0.012,-0.0104,-0.0017,-0.0001,-0.0049,-0.0041,0.0076,0.0089,0.01,0.0154,0.0168,0.0171,0.0173,0.0283,0.0284,0.0285,0,0,0,0,0,0,-0.0264,-0.0255,-0.0182,-0.0211,-0.02,-0.0133,-0.0117,-0.0105,-0.0088,-0.0004,0.0014,-0.0042,0.0079,0.0095,0.0165,0.0158,0.0173,0.0176,0.0282,0.0283,0.0284,0.0201,0,0,0,0,0,0,-0.0267,-0.0257,-0.0259,-0.0211,-0.0199,-0.0163,-0.0119,-0.0105,-0.0085,-0.0074,0.0007,0.0025,0.0083,0.0159,0.0169,0.0164,0.0179,0.0281,0.0282,0.0284,0.0203,0.0199,0.0196,0,0,0,0,0,-0.0271,-0.0278,-0.0259,-0.025,-0.0199,-0.0163,-0.0157,-0.0101,-0.0088,-0.0077,-0.0007,0.0023,0.0175,0.0162,0.0173,0.0169,0.028,0.0282,0.0284,0.0204,0.02,0.0196,0,0,0,0,0,0,-0.032,-0.0266,-0.0245,-0.0233,-0.0194,-0.0144,-0.0142,-0.0113,-0.006,-0.0047,0.0028,0.0051,0.0106,0.0152,0.0136,0.0211,0.0233,0.0237,0.0169,0.0165,0.0162,0.0154,0.0182,0,0,0,0,0,-0.0337,-0.0326,-0.027,-0.0262,-0.025,-0.0205,-0.0191,-0.0149,-0.0094,-0.0069,-0.001,0.0058,0.0112,0.0153,0.0205,0.0238,0.0276,0.0248,0.0244,0.0241,0.0245,0.0291,0.0292,0.029,0.029,0.029,0,0,-0.0354,-0.0324,-0.0317,-0.0273,-0.0248,-0.0231,-0.0188,-0.0163,-0.0139,-0.0061,-0.0016,0.0038,0.0118,0.0168,0.0197,0.0213,0.0262,0.0243,0.0239,0.0246,0.0293,0.0293,0.0293,0.0291,0.0291,0.0291,0,0,-0.0383,-0.0359,-0.036,-0.0334,-0.0291,-0.0258,-0.0252,-0.0199,-0.0164,-0.0118,-0.0053,0.001,0.0082,0.0149,0.0188,0.0194,0.0234,0.0205,0.0189,0.0233,0.0233,0.0233,0.0274,0.0279,0.0214,0.0213,0.0213,0,-0.0405,-0.0395,-0.0356,-0.0351,-0.0334,-0.0274,-0.027,-0.0234,-0.0158,-0.0129,-0.0102,0.0013,0.0074,0.0144,0.0159,0.0183,0.0214,0.019,0.0225,0.0226,0.0228,0.0271,0.0277,0.021,0.021,0.021,0.0211,0,-0.0429,-0.0424,-0.0427,-0.0396,-0.0375,-0.0361,-0.0302,-0.0271,-0.0232,-0.0183,-0.0112,-0.0026,0.005,0.0073,0.012,0.0165,0.0184,0.0201,0.0225,0.0223,0.0269,0.0276,0.0204,0.0206,0.0207,0.0208,0,0,-0.0464,-0.0447,-0.0449,-0.0448,-0.0397,-0.0382,-0.0348,-0.0294,-0.0273,-0.0195,-0.0158,-0.006,-0.0015,0.0034,0.0096,0.0145,0.0179,0.0176,0.018,0.0199,0.0274,0.0311,0.0324,0.0195,0.0196,0.0197,0.0297,0,-0.0492,-0.0508,-0.0481,-0.0487,-0.0489,-0.0431,-0.0408,-0.0349,-0.029,-0.0238,-0.0141,-0.0086,-0.0029,0.0,0.006,0.0153,0.0198,0.0151,0.0291,0.0295,0.0313,0.0334,0.0291,0.0379,0.0305,0.0306,0.0307,0,-0.052,-0.0527,-0.0549,-0.0537,-0.0533,-0.0526,-0.0481,-0.0448,-0.0354,-0.0308,-0.0226,-0.0152,-0.005,-0.0021,0.0139,0.0104,0.018,0.0248,0.0254,0.0326,0.0348,0.0374,0.0397,0.0321,0.032,0.0319,0.0318,0,-0.0566,-0.0572,-0.0596,-0.0591,-0.0566,-0.0565,-0.0546,-0.0472,-0.0449,-0.0355,-0.0325,-0.0193,-0.0119,-0.0013,0.0154,0.0136,0.0324,0.0316,0.0422,0.0425,0.0438,0.0441,0.0408,0.0408,0.0408,0.0407,0.0407,0,-0.06,-0.0618,-0.0628,-0.0638,-0.0667,-0.0627,-0.0629,-0.0587,-0.0527,-0.0491,-0.0372,-0.0286,-0.0115,0.0026,0.0143,0.0328,0.032,0.0428,0.0458,0.0409,0.0408,0.0399,0.0397,0.0411,0.041,0.041,0.0409,0,-0.064,-0.0644,-0.0678,-0.0684,-0.0691,-0.0715,-0.0703,-0.0696,-0.0632,-0.0583,-0.0559,-0.035,-0.0137,0.0035,0.0248,0.0329,0.0482,0.0543,0.0479,0.05,0.0548,0.054,0.065,0.0652,0.0654,0.0656,0.0657,0,-0.0661,-0.0684,-0.0728,-0.0759,-0.0769,-0.0792,-0.0802,-0.0758,-0.0742,-0.0595,-0.0565,-0.0341,-0.0132,0.0203,0.0382,0.0583,0.0587,0.0634,0.0594,0.0557,0.0575,0.0565,0.0555,0.0575,0.0575,0.0576,0.0576,0,-0.0702,-0.0724,-0.0756,-0.0822,-0.086,-0.0889,-0.0895,-0.0901,-0.0825,-0.0757,-0.056,-0.0375,-0.0011,0.0269,0.0517,0.0616,0.0593,0.065,0.0645,0.052,0.0495,0.0509,0.05,0.058,0.058,0.0579,0.0579,0.0579,-0.0741,-0.0784,-0.0831,-0.0889,-0.0932,-0.0967,-0.0965,-0.0949,-0.0907,-0.0768,-0.0567,-0.0263,-0.0034,0.0375,0.0547,0.0694,0.0689,0.0689,0.0683,0.0679,0.0652,0.0632,0.0738,0.0738,0.0739,0.0739,0.074,0,-0.0792,-0.0831,-0.0888,-0.0958,-0.1008,-0.1,-0.1004,-0.0978,-0.0908,-0.0718,-0.0507,-0.0229,0.0085,0.0361,0.0603,0.0717,0.0675,0.0729,0.0649,0.0645,0.0641,0.0609,0.0685,0.0685,0.0686,0.0686,0,0,-0.0825,-0.0887,-0.0912,-0.1003,-0.1034,-0.1052,-0.1035,-0.0979,-0.0835,-0.0635,-0.0405,-0.0173,0.0157,0.0277,0.0439,0.0609,0.0589,0.0605,0.0632,0.0514,0.0509,0.06,0.0544,0,0,0,0,0]}],[{"header":{"parameterUnit":"m.s-1","parameterCategory":2,"la1":30.2991,"la2":30.254,"lo1":-89.0895,"lo2":-89.0444,"dy":0.0017,"dx":0.0017,"nx":28,"ny":28,"refTime":"2024-07-17T03:00:00:Z","depth":"4","parameterNumber":2,"parameterNumberName":"U-component_of_CURRENTS"},"data":[0,0,0,0,0,0,0,0,0,0,0,0,0,0,0,0,0,0,0,0,0,0,0,0,0,0,0,0,0,0,0,0,0,0,0,0,0,0,0,0,0,0,0,0,0,0,0,0,0,0,0,0,0,0,0,0,0,0,-0.1385,-0.1386,0,-0.1441,-0.1442,-0.1443,-0.1477,-0.1477,-0.1477,-0.1478,-0.1567,-0.1569,-0.1571,0,0,0,0,0,0,0,0,0,0,0,0,0,-0.1302,-0.1303,-0.1385,-0.1386,-0.1387,-0.1441,-0.1442,-0.1443,-0.1477,-0.1477,-0.1477,-0.1478,-0.1566,-0.1569,-0.1571,0,0,0,0,0,0,0,0,0,0,0,0,0,-0.1346,-0.1304,-0.1385,-0.1411,-0.1414,-0.1441,-0.1442,-0.1443,-0.1477,-0.1477,-0.1477,-0.1478,-0.1565,-0.1568,-0.1572,-0.1585,0,0,-0.1581,-0.1583,0,0,0,0,0,0,0,0,-0.1343,-0.1348,-0.1406,-0.1409,-0.1412,-0.1453,-0.1445,-0.1492,-0.1477,-0.1452,-0.1478,-0.1478,-0.1532,-0.1538,-0.1546,-0.1589,-0.1593,-0.1582,-0.1584,-0.1585,-0.1586,0,0,0,0,0,0,0,-0.134,-0.1346,-0.1407,-0.1407,-0.1411,-0.1418,-0.1424,-0.1454,-0.149,-0.1454,-0.1457,-0.1464,-0.1534,-0.1543,-0.1549,-0.1594,-0.1582,-0.1584,-0.1586,-0.1588,-0.1697,-0.1698,0,0,0,0,0,0,-0.1334,-0.1344,-0.1405,-0.1409,-0.1379,-0.1419,-0.1426,-0.1439,-0.1489,-0.1496,-0.1464,-0.1466,-0.1537,-0.1545,-0.1552,-0.1632,-0.1585,-0.1588,-0.159,-0.1696,-0.1697,-0.1698,0,0,0,0,0,0,-0.1333,-0.134,-0.1403,-0.1377,-0.1386,-0.142,-0.1434,-0.144,-0.1471,-0.1496,-0.1504,-0.1491,-0.1538,-0.1548,-0.16,-0.1633,-0.159,-0.1592,-0.1695,-0.1696,-0.1697,-0.1752,0,0,0,0,0,0,-0.133,-0.1339,-0.1355,-0.1377,-0.1387,-0.1434,-0.1434,-0.1441,-0.1473,-0.1477,-0.1521,-0.1528,-0.1539,-0.1595,-0.1603,-0.1637,-0.1595,-0.1693,-0.1695,-0.1697,-0.1749,-0.1755,-0.176,0,0,0,0,0,-0.1327,-0.1346,-0.1355,-0.1363,-0.1406,-0.1435,-0.1441,-0.1465,-0.1474,-0.1493,-0.1525,-0.1528,-0.1611,-0.1599,-0.1608,-0.1644,-0.1693,-0.1695,-0.1697,-0.1747,-0.1754,-0.176,0,0,0,0,0,0,-0.1318,-0.1351,-0.1363,-0.1391,-0.1418,-0.1441,-0.1465,-0.1478,-0.1516,-0.1529,-0.1547,-0.1557,-0.1613,-0.1618,-0.1603,-0.1677,-0.165,-0.1654,-0.1685,-0.1692,-0.1698,-0.169,-0.1598,0,0,0,0,0,-0.1323,-0.1348,-0.1376,-0.1402,-0.1418,-0.1445,-0.1464,-0.1482,-0.1513,-0.1531,-0.1561,-0.1592,-0.1625,-0.1651,-0.1676,-0.1724,-0.1703,-0.1749,-0.1754,-0.1759,-0.1758,-0.1756,-0.1761,-0.1705,-0.1705,-0.1705,0,0,-0.1324,-0.1349,-0.1362,-0.1402,-0.1427,-0.1461,-0.1458,-0.1496,-0.1532,-0.1535,-0.16,-0.1617,-0.164,-0.1692,-0.1717,-0.1705,-0.1763,-0.1762,-0.1766,-0.1762,-0.1759,-0.1764,-0.1769,-0.1706,-0.1706,-0.1706,0,0,-0.1335,-0.1366,-0.1389,-0.1418,-0.1462,-0.1485,-0.1501,-0.1539,-0.1568,-0.1622,-0.1633,-0.1665,-0.1724,-0.174,-0.1757,-0.1808,-0.1791,-0.1823,-0.1854,-0.1853,-0.1858,-0.1861,-0.1835,-0.1836,-0.1829,-0.1829,-0.1829,0,-0.1339,-0.1372,-0.1399,-0.1433,-0.1466,-0.15,-0.1536,-0.1571,-0.1622,-0.1649,-0.1652,-0.1725,-0.1743,-0.1797,-0.1814,-0.1822,-0.1811,-0.183,-0.186,-0.1864,-0.1866,-0.1838,-0.1839,-0.1832,-0.1832,-0.1831,-0.1831,0,-0.1357,-0.14,-0.142,-0.1478,-0.1515,-0.1556,-0.1605,-0.1649,-0.1687,-0.1714,-0.1776,-0.1796,-0.1832,-0.1848,-0.1851,-0.1889,-0.187,-0.1865,-0.1842,-0.1875,-0.1844,-0.1843,-0.1836,-0.1835,-0.1834,-0.1833,0,0,-0.1329,-0.1417,-0.1426,-0.1466,-0.1546,-0.1576,-0.1649,-0.1713,-0.1756,-0.1805,-0.185,-0.1901,-0.1902,-0.1918,-0.1925,-0.1929,-0.1934,-0.1912,-0.1911,-0.1884,-0.1919,-0.1772,-0.1756,-0.1942,-0.1943,-0.1943,-0.1886,0,-0.1341,-0.1407,-0.1452,-0.1529,-0.1572,-0.1637,-0.1698,-0.1762,-0.1813,-0.1864,-0.1892,-0.1934,-0.1934,-0.1948,-0.1957,-0.1941,-0.1937,-0.1949,-0.1892,-0.1889,-0.1754,-0.1752,-0.1945,-0.1885,-0.1885,-0.1885,-0.1885,0,-0.1341,-0.1391,-0.1462,-0.1564,-0.1588,-0.164,-0.1741,-0.1797,-0.1876,-0.1912,-0.1958,-0.1976,-0.2002,-0.1986,-0.1977,-0.1989,-0.1958,-0.1938,-0.1935,-0.1776,-0.174,-0.1847,-0.1883,-0.1883,-0.1883,-0.1883,-0.1883,0,-0.13,-0.14,-0.1459,-0.1494,-0.1608,-0.1657,-0.1718,-0.1809,-0.1849,-0.1933,-0.1956,-0.2004,-0.2009,-0.2,-0.1955,-0.1975,-0.1917,-0.1935,-0.1773,-0.1762,-0.189,-0.1886,-0.1917,-0.1917,-0.1917,-0.1917,-0.1917,0,-0.1289,-0.134,-0.1447,-0.148,-0.1549,-0.1637,-0.1707,-0.1777,-0.1852,-0.1873,-0.1965,-0.1967,-0.2014,-0.1988,-0.1957,-0.1839,-0.1914,-0.1763,-0.1734,-0.1912,-0.1913,-0.1888,-0.1885,-0.1915,-0.1916,-0.1916,-0.1916,0,-0.1233,-0.1306,-0.1381,-0.1499,-0.1533,-0.158,-0.168,-0.1711,-0.1808,-0.1832,-0.1853,-0.1934,-0.1906,-0.1913,-0.1878,-0.1807,-0.1731,-0.167,-0.1835,-0.1819,-0.1582,-0.1583,-0.1495,-0.149,-0.1485,-0.1481,-0.1477,0,-0.1207,-0.124,-0.1368,-0.1396,-0.145,-0.1524,-0.1557,-0.1669,-0.1681,-0.1776,-0.1755,-0.1791,-0.1817,-0.1644,-0.1688,-0.1609,-0.1591,-0.1536,-0.1586,-0.1556,-0.1538,-0.1547,-0.1554,-0.147,-0.1468,-0.1467,-0.1466,0,-0.1151,-0.1208,-0.1261,-0.1314,-0.1358,-0.1397,-0.1446,-0.1443,-0.1538,-0.1644,-0.1596,-0.1582,-0.155,-0.1536,-0.1476,-0.1428,-0.1568,-0.1486,-0.1497,-0.1543,-0.1524,-0.1512,-0.1526,-0.1449,-0.1451,-0.1453,-0.1454,0,-0.11,-0.1117,-0.1178,-0.1209,-0.1252,-0.1232,-0.129,-0.1281,-0.1309,-0.1412,-0.1384,-0.1436,-0.1511,-0.1438,-0.138,-0.1322,-0.1321,-0.127,-0.1293,-0.1312,-0.128,-0.123,-0.1023,0,0,0,0,0,-0.1039,-0.1033,-0.1058,-0.1077,-0.1106,-0.1122,-0.1185,-0.124,-0.1329,-0.1238,-0.1305,-0.1266,-0.1222,-0.1263,-0.1166,-0.1315,-0.1331,-0.1196,-0.1287,-0.1355,-0.1375,-0.1356,0,0,0,0,0,0,-0.0995,-0.1017,-0.1017,-0.0938,-0.0918,-0.0925,-0.0958,-0.1029,-0.0988,-0.1096,-0.108,-0.116,-0.1145,-0.1242,-0.113,-0.1137,-0.1158,-0.1235,-0.123,-0.1344,-0.1362,-0.1378,-0.1365,0,0,0,0,0]},{"header":{"parameterUnit":"m.s-1","parameterCategory":2,"la1":30.2991,"la2":30.254,"lo1":-89.0895,"lo2":-89.0444,"dy":0.0017,"dx":0.0017,"nx":28,"ny":28,"refTime":"2024-07-17T03:00:00:Z","depth":"4","parameterNumber":3,"parameterNumberName":"V-component_of_CURRENTS"},"data":[0,0,0,0,0,0,0,0,0,0,0,0,0,0,0,0,0,0,0,0,0,0,0,0,0,0,0,0,0,0,0,0,0,0,0,0,0,0,0,0,0,0,0,0,0,0,0,0,0,0,0,0,0,0,0,0,0,0,-0.0193,-0.0193,0,-0.0168,-0.0168,-0.0167,-0.0132,-0.0131,-0.0131,-0.013,-0.0055,-0.0053,-0.0052,0,0,0,0,0,0,0,0,0,0,0,0,0,-0.0224,-0.0224,-0.0193,-0.0193,-0.0192,-0.0168,-0.0168,-0.0167,-0.0132,-0.0131,-0.013,-0.013,-0.0055,-0.0053,-0.0052,0,0,0,0,0,0,0,0,0,0,0,0,0,-0.0206,-0.0224,-0.0193,-0.0172,-0.017,-0.0168,-0.0168,-0.0167,-0.0132,-0.0131,-0.013,-0.0129,-0.0056,-0.0054,-0.0051,-0.0056,0,0,-0.0045,-0.0044,0,0,0,0,0,0,0,0,-0.0207,-0.0205,-0.0175,-0.0173,-0.0171,-0.0152,-0.0151,-0.0128,-0.0132,-0.0146,-0.013,-0.0129,-0.0083,-0.0079,-0.0077,-0.0053,-0.005,-0.0045,-0.0043,-0.0042,-0.0042,0,0,0,0,0,0,0,-0.0209,-0.0206,-0.0183,-0.0175,-0.0172,-0.0169,-0.0165,-0.0147,-0.0119,-0.0145,-0.0142,-0.014,-0.0081,-0.0079,-0.0075,-0.0048,-0.0045,-0.0043,-0.0041,-0.0041,0.0011,0.0011,0,0,0,0,0,0,-0.0212,-0.0207,-0.0184,-0.0182,-0.0187,-0.0169,-0.0164,-0.0159,-0.012,-0.0114,-0.0141,-0.0138,-0.0083,-0.0077,-0.0072,-0.0034,-0.0042,-0.004,-0.0039,0.0011,0.0011,0.0011,0,0,0,0,0,0,-0.0213,-0.021,-0.0185,-0.0194,-0.0191,-0.0169,-0.0163,-0.0159,-0.0156,-0.0118,-0.011,-0.0142,-0.0082,-0.0075,-0.005,-0.0032,-0.0039,-0.0037,0.0011,0.0011,0.0011,0.0015,0,0,0,0,0,0,-0.0214,-0.021,-0.0214,-0.0195,-0.019,-0.0187,-0.0164,-0.0159,-0.0156,-0.0152,-0.0116,-0.0108,-0.0081,-0.0053,-0.0048,-0.0029,-0.0036,0.0011,0.0011,0.0011,0.0015,0.0016,0.0016,0,0,0,0,0,-0.0215,-0.0226,-0.0214,-0.0212,-0.0194,-0.0188,-0.0186,-0.0167,-0.0157,-0.016,-0.0129,-0.0109,-0.0048,-0.0052,-0.0045,-0.0026,0.0011,0.0011,0.0011,0.0015,0.0015,0.0016,0,0,0,0,0,0,-0.0243,-0.0222,-0.0209,-0.0213,-0.0201,-0.0182,-0.0187,-0.0174,-0.0154,-0.0148,-0.0111,-0.0101,-0.0072,-0.0058,-0.0062,-0.0012,-0.0015,-0.0013,-0.0014,-0.0013,-0.0013,-0.0013,-0.0034,0,0,0,0,0,-0.0251,-0.0252,-0.023,-0.0234,-0.023,-0.021,-0.0208,-0.0192,-0.0171,-0.0163,-0.0136,-0.0104,-0.0069,-0.0049,-0.0025,-0.0001,0.0018,0.0015,0.0016,0.0016,0.0019,0.0064,0.0069,0.0012,0.0012,0.0012,0,0,-0.0262,-0.0252,-0.0252,-0.024,-0.023,-0.0224,-0.0206,-0.0204,-0.019,-0.0157,-0.0136,-0.0107,-0.0065,-0.0032,-0.0017,-0.0014,0.004,0.0016,0.0017,0.002,0.0064,0.007,0.0075,0.0012,0.0012,0.0012,0,0,-0.0287,-0.0277,-0.0285,-0.0276,-0.0263,-0.0246,-0.0246,-0.0226,-0.0209,-0.0188,-0.0151,-0.0109,-0.0078,-0.0027,0.0001,0.0014,0.0036,0.0014,0.0027,0.007,0.0075,0.008,0.0104,0.0111,0.0021,0.0021,0.0021,0,-0.03,-0.0303,-0.0288,-0.0291,-0.0285,-0.0255,-0.0258,-0.0235,-0.0207,-0.0186,-0.0183,-0.0105,-0.0068,0.0001,0.0013,0.002,0.0033,0.0025,0.0072,0.0077,0.0082,0.0106,0.0114,0.0022,0.0022,0.0022,0.0021,0,-0.0325,-0.0327,-0.0334,-0.032,-0.0312,-0.0313,-0.0276,-0.026,-0.0237,-0.0204,-0.015,-0.0097,-0.0047,-0.0023,0.0004,0.0064,0.0058,0.0063,0.0073,0.0088,0.0112,0.012,0.0022,0.0022,0.0022,0.0022,0,0,-0.0349,-0.035,-0.0352,-0.0355,-0.0327,-0.0327,-0.0295,-0.0257,-0.0238,-0.019,-0.0157,-0.0071,-0.0043,-0.001,0.0034,0.0084,0.0139,0.0088,0.009,0.0115,0.0216,0.0176,0.0182,0.0149,0.015,0.0151,0.0216,0,-0.037,-0.0392,-0.0378,-0.0386,-0.0392,-0.0353,-0.0332,-0.0289,-0.0249,-0.0211,-0.0125,-0.0086,-0.0037,-0.0018,0.0048,0.011,0.0161,0.012,0.0194,0.0196,0.0163,0.019,0.0157,0.0222,0.0224,0.0225,0.0226,0,-0.0393,-0.0406,-0.0428,-0.0424,-0.0423,-0.0421,-0.0385,-0.036,-0.0282,-0.0251,-0.0177,-0.0125,-0.0026,-0.0007,0.0133,0.0099,0.0159,0.0209,0.0213,0.0181,0.0172,0.0205,0.0241,0.024,0.0239,0.0238,0.0237,0,-0.0425,-0.0437,-0.0461,-0.046,-0.0449,-0.045,-0.0437,-0.0377,-0.0361,-0.0282,-0.0268,-0.0142,-0.01,0.001,0.0123,0.0125,0.0255,0.0269,0.0294,0.0291,0.0306,0.03,0.0362,0.0362,0.0362,0.0362,0.0362,0,-0.0447,-0.0465,-0.0487,-0.0501,-0.0529,-0.05,-0.0508,-0.0472,-0.0426,-0.0408,-0.0302,-0.0266,-0.0097,-0.0002,0.011,0.0222,0.0248,0.0302,0.0311,0.0303,0.0296,0.0311,0.0304,0.0364,0.0364,0.0363,0.0363,0,-0.0471,-0.0484,-0.0521,-0.0538,-0.0549,-0.0572,-0.0578,-0.0575,-0.0528,-0.0505,-0.0487,-0.0358,-0.0226,-0.0068,0.0105,0.0183,0.0303,0.0333,0.03,0.0305,0.0316,0.0308,0.0377,0.0377,0.0376,0.0376,0.0375,0,-0.0483,-0.0508,-0.0565,-0.06,-0.0617,-0.0647,-0.0663,-0.0631,-0.0624,-0.056,-0.055,-0.043,-0.0327,-0.0107,0.0057,0.0263,0.0289,0.0337,0.0354,0.0319,0.0321,0.0314,0.0308,0.0374,0.0374,0.0374,0.0374,0,-0.0509,-0.054,-0.0576,-0.0652,-0.0697,-0.0734,-0.0753,-0.0757,-0.071,-0.068,-0.0592,-0.0464,-0.032,-0.012,0.003,0.0178,0.0304,0.0332,0.0335,0.0351,0.0315,0.0317,0.0311,0.0371,0.0372,0.0372,0.0372,0,-0.0535,-0.0576,-0.0635,-0.0695,-0.0758,-0.0798,-0.0803,-0.0783,-0.0768,-0.0684,-0.066,-0.0488,-0.0377,-0.0167,-0.0026,0.0115,0.0159,0.0197,0.0208,0.0212,0.0146,0.0076,0.0072,0,0,0,0,0,-0.0556,-0.0602,-0.0667,-0.074,-0.08,-0.0829,-0.0848,-0.0837,-0.08,-0.0745,-0.0696,-0.0554,-0.033,-0.0225,-0.0088,-0.0042,0.0171,0.0119,0.0218,0.036,0.0362,0.0309,0,0,0,0,0,0,-0.0575,-0.064,-0.0671,-0.0758,-0.0808,-0.0869,-0.088,-0.0856,-0.0807,-0.0749,-0.0618,-0.0546,-0.0314,-0.0406,-0.0092,-0.005,0.0024,0.0233,0.0235,0.0358,0.036,0.0362,0.0309,0,0,0,0,0]}]]